Regional Weather Roundup
Issued by NWS Boston, MA

Home | Current Version | Previous Version | Text Only | Print | Product List | Glossary On
Versions: 1 2 3 4 5 6 7 8 9 10 11 12 13 14 15 16 17 18 19 20 21 22 23 24 25 26 27 28 29 30 31 32 33 34 35 36 37 38 39 40 41 42 43 44 45 46 47 48 49 50
000
ASUS41 KBOX 282010
RWRBOX

REGIONAL WEATHER ROUNDUP
NATIONAL WEATHER SERVICE TAUNTON MA
300 PM EST WED JAN 28 2015

NOTE:  "FAIR" INDICATES FEW OR NO CLOUDS BELOW 12,000 FEET WITH NO
SIGNIFICANT WEATHER AND/OR OBSTRUCTIONS TO VISIBILITY.  THE FOLLOWING
OBSERVATION LOCATIONS DO NOT REPORT PRESENT WEATHER...PROVINCETOWN...
SMITHFIELD...BLOCK ISLAND...KEENE...AND OXFORD.

MAZALL-282100-
EASTERN MASSACHUSETTS

CITY           SKY/WX    TMP DP  RH WIND       PRES   REMARKS
BOSTON         PTSUNNY   24   9  52 NW13      30.00R WCI  12
BEVERLY        SUNNY     24   6  46 NW16      29.99R WCI  11
LAWRENCE       SUNNY     23   8  52 NW14G21   30.01R WCI  11
BEDFORD        SUNNY     23   8  52 NW13      29.99R WCI  11
BLUE HILL        N/A     21   7  54 MISG      29.93R
NORWOOD        MOSUNNY   24   6  46 NW9       29.99R WCI  14
MARSHFIELD     MOSUNNY   27  10  50 N8        30.00R HAZE    WCI  18
PLYMOUTH       MOSUNNY   22   7  52 NW9       29.98R WCI  12
TAUNTON        MOSUNNY   25   6  44 NW6       29.99R WCI  18
NEW BEDFORD    FAIR      24   7  48 N8        29.98R WCI  15
$$

MAZALL-282100-
CAPE COD AND THE ISLANDS

CITY           SKY/WX    TMP DP  RH WIND       PRES   REMARKS
FALMOUTH       MOSUNNY   23   9  54 NW9G18    29.98R HAZE    WCI  13
HYANNIS        CLOUDY    23  15  71 NW12      29.96R WCI  12
CHATHAM        FLURRIES  24  16  71 VRB6      29.97R WCI  17
PROVINCETOWN   CLOUDY    25  14  63 NW18      29.97R WCI  11
NANTUCKET      CLOUDY    24  15  68 N15       29.97R WCI  11
MARTHAS VNYRD  SUNNY     24   7  48 NW12      29.98R WCI  13
$$

MAZALL-282100-
CENTRAL AND WESTERN MASSACHUSETTS

CITY           SKY/WX    TMP DP  RH WIND       PRES   REMARKS
WORCESTER      MOSUNNY   21   7  54 NW15G26   29.95R WCI   8
FITCHBURG      PTSUNNY   24   8  50 NW10      30.01R WCI  14
ORANGE         MOSUNNY   23   7  50 N13G23    30.02R WCI  11
SPRINGFIELD    MOSUNNY   25   7  47 N12       30.03R WCI  14
WESTFIELD      MOSUNNY   27   8  44 NW14G23   30.03R WCI  16
NORTH ADAMS    SUNNY     19   3  49 W8        30.09R WCI   9
PITTSFIELD     SUNNY     20   5  52 NW10G21   30.02R WCI   9
$$

RIZALL-282100-
RHODE ISLAND

CITY           SKY/WX    TMP DP  RH WIND       PRES   REMARKS
PROVIDENCE     MOSUNNY   25   7  46 NW13      30.00R WCI  14
NEWPORT        MOSUNNY   23   7  50 NW12      29.99R WCI  12
BLOCK ISLAND   FAIR      25   7  46 NW7       29.99R WCI  17
SMITHFIELD     MOSUNNY   21   7  53 NW13G22   29.97R WCI   9
WESTERLY       SUNNY     26   8  46 N13       30.01R WCI  15
$$

CTZALL-282100-
CONNECTICUT

CITY           SKY/WX    TMP DP  RH WIND       PRES   REMARKS
BRADLEY INTL   MOSUNNY   26   9  48 NE9       30.03R WCI  17
HARTFORD       SUNNY     25   9  50 NE9       30.05R WCI  15
BRIDGEPORT     SUNNY     28  10  46 NW15      30.05R WCI  16
DANBURY        SUNNY     27   6  41 NW13G24   30.06R WCI  16
GROTON         SUNNY     25   9  50 NW10      30.02R WCI  15
NEW HAVEN      SUNNY     28  10  46 NW8G18    30.04R WCI  20
CHESTER        FAIR      27  10  50 N14       30.01R WCI  15
MERIDEN        SUNNY     28  10  46 NW15      30.04R WCI  16
WILLIMANTIC    MOSUNNY   25   8  48 NW14G23   30.02R WCI  13
OXFORD         SUNNY     25   7  46 N21G26    30.02R WCI  10
$$

MEZ002-015-021-024-NHZ003-005-008-011-012-014-VTZ005-008-282100-
NORTHERN NEW ENGLAND

CITY           SKY/WX    TMP DP  RH WIND       PRES   REMARKS
PORTLAND ME    PTSUNNY   25  10  53 NW12      29.96R WCI  14
BANGOR ME      CLOUDY    18  10  71 NW17      29.92R WCI   3
CONCORD NH     MOSUNNY   22   6  50 NW10      30.00R WCI  11
MANCHESTER NH  PTSUNNY   23   7  50 NW14      29.99R WCI  11
NASHUA NH      PTSUNNY   23   9  55 NW18G24   30.01R WCI   9
PORTSMOUTH NH  PTSUNNY   24   8  51 W10       29.97R WCI  13
JAFFREY NH     PTSUNNY   22   7  52 VRB5      29.97R WCI  16
KEENE NH       MOSUNNY   23   7  50 N10       30.03R WCI  12
BURLINGTON VT  MOSUNNY   18  -6  34 N12       30.17R WCI   5
MT. WASHINGTON PTSUNNY    3  -2  78 N35G54      N/A  WCI -23
$$

NYZ052-076-282100-
EASTERN NEW YORK

CITY           SKY/WX    TMP DP  RH WIND       PRES   REMARKS
ALBANY         MOSUNNY   22   0  38 N13       30.14R WCI  10
NEW YORK CITY  SUNNY     33  10  38 NW13      30.07R WCI  24
$$

ANZALL-282100-
MARINE OBSERVATIONS

STATION/POSITION TIME  TEMP    WIND        PRES    VSBY  WAVE
                       AIR SEA DIR/SP/G                  HT/PER
                 (UTC) (F)     (DEG/KT/KT) (MB)    (MI)  (FT/S)
BOSTON BUOY      1950   24 40  320/ 17/ 23 1015.1R         8/10
BUZZARDS BAY     1900          320/ 18/ 20 1015.3R
NANTUCKET SOUND  NOT AVBL
MASS BAY-STELLWA 1904   21 41  310/ 14/ 17   N/A    1 7/8  8/11
ISLE OF SHOALS   2000   24     290/ 16/ 18 1014.2R
S OF BLOCK IS    1908      43                N/A           4/12
$$

......................KEY.........................
  SKY/WX - SKY CONDITION/PRESENT WEATHER
  TMP    - TEMPERATURE IN FAHRENHEIT
  DWPT   - DEWPOINT IN FAHRENHEIT
  RH     - RELATIVE HUMIDITY IN PERCENT
  WIND   - DIRECTION AND SPEED IN MPH
  PRES   - MEAN SEA LEVEL PRESSURE IN INCHES OF HG
  WCI    - WIND CHILL INDEX
  VSB    - VISIBILITY IN MILES
  HX     - HEAT INDEX
  TC     - TEMPERATURE IN CELSIUS
  VRB    - VARIABLE WIND DIRECTION
  N/A    - NOT AVAILABLE


USA.gov is the U.S. government's official web portal to all federal, state and local government web resources and services.